Change the Weather History Date:

Tuesday, December 25, 2012

  Actual Average (KSPI) Record (KSPI)
Temperature  
Mean Temperature 26 °F 28 °F  
Max Temperature 30 °F 36 °F 62 °F (1982)
Min Temperature 21 °F 20 °F -14 °F (1983)
Degree Days  
Heating Degree Days 40 37  
Month to date heating degree days 849  
Since 1 July heating degree days 1917  
Cooling Degree Days 0 0  
Month to date cooling degree days 0  
Year to date cooling degree days 1122  
Moisture  
Dew Point 24 °F    
Average Humidity 86    
Maximum Humidity 93    
Minimum Humidity 80    
Precipitation  
Precipitation 0.00 in 0.08 in 0.60 in (1951)
Month to date precipitation 2.10  
Year to date precipitation 37.01  
Snow  
Snow 0.00 in 0.30 in 4.00 in (1944)
Month to date snowfall 4.3  
Since 1 July snowfall 4.9  
Snow Depth -    
Sea Level Pressure  
Sea Level Pressure 30.15 in    
Wind  
Wind Speed 11 mph (North)    
Max Wind Speed 21 mph    
Max Gust Speed 25 mph    
Visibility 8 miles    
Events      
T = Trace of Precipitation, MM = Missing Value Source: NWS Daily Summary

Daily Weather History Graph

Daily Weather History Graph

Search for Another Location

Airport or City:

Trip Planner

Search our weather history database for the weather conditions in past years. The results will help you decide how hot, cold, wet, or windy it might be!

Date:

Astronomy

Dec. 25, 2012 Rise Set
Actual Time 7:16 AM CST 4:39 PM CST
Civil Twilight 6:45 AM CST 5:09 PM CST
Nautical Twilight 6:12 AM CST 5:43 PM CST
Astronomical Twilight 5:39 AM CST 6:16 PM CST
Moon 2:47 PM CST (12/25) 4:48 AM CST (12/25)
Length of Visible Light 10h 23m
Length of Day
9h 23m
Waxing Gibbous, 94% of the Moon is Illuminated
Dec 25
Waxing Gibbous
Dec 28
Full
Jan 4
Last Quarter
Jan 11
New
Jan 18
First Quarter

Hourly Weather History & Observations

Time (CST) Temp. Windchill Dew Point Humidity Pressure Visibility Wind Dir Wind Speed Gust Speed Precip Events Conditions
12:15 AM 21.2 °F 10.9 °F 17.6 °F 86% 30.12 in 7.0 mi NW 9.2 mph - N/A   Overcast
12:35 AM 21.2 °F 12.6 °F 17.6 °F 86% 30.12 in 7.0 mi NW 6.9 mph - N/A   Overcast
12:55 AM 21.2 °F 10.9 °F 17.6 °F 86% 30.12 in 7.0 mi NNW 9.2 mph - N/A   Overcast
1:15 AM 21.2 °F 10.1 °F 19.4 °F 93% 30.12 in 7.0 mi NNW 10.4 mph - N/A   Mostly Cloudy
1:35 AM 21.2 °F 11.7 °F 19.4 °F 93% 30.13 in 7.0 mi NNW 8.1 mph - N/A   Mostly Cloudy
1:55 AM 21.2 °F 13.6 °F 19.4 °F 93% 30.14 in 7.0 mi NW 5.8 mph - N/A   Overcast
2:15 AM 23.0 °F 17.0 °F 19.4 °F 86% 30.15 in 7.0 mi NNW 4.6 mph - N/A   Overcast
2:35 AM 23.0 °F 17.0 °F 19.4 °F 86% 30.15 in 7.0 mi NNW 4.6 mph - N/A   Overcast
2:55 AM 23.0 °F 15.8 °F 19.4 °F 86% 30.16 in 7.0 mi NNW 5.8 mph - N/A   Overcast
3:15 AM 23.0 °F 15.8 °F 19.4 °F 86% 30.16 in 5.0 mi NNW 5.8 mph - N/A   Overcast
3:35 AM 23.0 °F 13.9 °F 19.4 °F 86% 30.15 in 5.0 mi North 8.1 mph - N/A   Overcast
3:55 AM 23.0 °F 13.1 °F 19.4 °F 86% 30.15 in 5.0 mi North 9.2 mph - N/A   Overcast
4:15 AM 23.0 °F 13.9 °F 19.4 °F 86% 30.16 in 5.0 mi NNW 8.1 mph - N/A   Overcast
4:35 AM 23.0 °F 14.7 °F 21.2 °F 93% 30.16 in 5.0 mi North 6.9 mph - N/A   Overcast
4:55 AM 23.0 °F 13.9 °F 21.2 °F 93% 30.16 in 5.0 mi NNW 8.1 mph - N/A   Overcast
5:15 AM 23.0 °F 13.9 °F 21.2 °F 93% 30.18 in 5.0 mi North 8.1 mph - N/A   Overcast
5:35 AM 24.8 °F 16.1 °F 21.2 °F 86% 30.17 in 5.0 mi North 8.1 mph - N/A   Overcast
5:55 AM 24.8 °F 16.1 °F 21.2 °F 86% 30.18 in 5.0 mi North 8.1 mph - N/A   Overcast
6:15 AM 24.8 °F 16.1 °F 21.2 °F 86% 30.18 in 5.0 mi North 8.1 mph - N/A   Overcast
6:35 AM 24.8 °F 14.6 °F 21.2 °F 86% 30.18 in 5.0 mi North 10.4 mph - N/A   Overcast
6:55 AM 24.8 °F 15.3 °F 23.0 °F 93% 30.17 in 5.0 mi North 9.2 mph - N/A   Mostly Cloudy
7:15 AM 24.8 °F 15.3 °F 23.0 °F 93% 30.17 in 5.0 mi North 9.2 mph - N/A   Mostly Cloudy
7:35 AM 26.6 °F 16.2 °F 24.8 °F 93% 30.16 in 4.0 mi North 11.5 mph - N/A   Mostly Cloudy
7:55 AM 26.6 °F 14.7 °F 24.8 °F 93% 30.15 in 4.0 mi North 15.0 mph - N/A   Overcast
8:15 AM 26.6 °F 14.7 °F 24.8 °F 93% 30.15 in 5.0 mi NNE 15.0 mph - N/A   Overcast
8:35 AM 26.6 °F 16.8 °F 24.8 °F 93% 30.19 in 7.0 mi NNE 10.4 mph 18.4 mph N/A   Overcast
8:55 AM 26.6 °F 18.2 °F 24.8 °F 93% 30.22 in 7.0 mi NNE 8.1 mph - N/A   Overcast
9:15 AM 28.4 °F 20.4 °F 24.8 °F 86% 30.22 in 10.0 mi North 8.1 mph - N/A   Overcast
9:35 AM 28.4 °F 19.7 °F 24.8 °F 86% 30.23 in 10.0 mi North 9.2 mph - N/A   Overcast
9:55 AM 28.4 °F 19.1 °F 24.8 °F 86% 30.25 in 10.0 mi NNE 10.4 mph - N/A   Overcast
10:15 AM 28.4 °F 19.7 °F 24.8 °F 86% 30.26 in 10.0 mi North 9.2 mph - N/A   Overcast
10:35 AM 30.2 °F 20.2 °F 24.8 °F 80% 30.25 in 10.0 mi North 12.7 mph - N/A   Mostly Cloudy
10:55 AM 30.2 °F 20.8 °F 24.8 °F 80% 30.26 in 10.0 mi North 11.5 mph - N/A   Scattered Clouds
11:15 AM 30.2 °F 20.8 °F 24.8 °F 80% 30.24 in 10.0 mi North 11.5 mph - N/A   Overcast
11:35 AM 30.2 °F 20.8 °F 24.8 °F 80% 30.22 in 10.0 mi North 11.5 mph - N/A   Overcast
11:55 AM 30.2 °F 19.3 °F 24.8 °F 80% 30.19 in 10.0 mi North 15.0 mph - N/A   Overcast
12:15 PM 30.2 °F 18.9 °F 24.8 °F 80% 30.16 in 10.0 mi NNE 16.1 mph 21.9 mph N/A   Scattered Clouds
12:35 PM 30.2 °F 19.8 °F 26.6 °F 86% 30.16 in 10.0 mi NNE 13.8 mph 20.7 mph N/A   Clear
12:55 PM 30.2 °F 18.9 °F 26.6 °F 86% 30.15 in 10.0 mi NNE 16.1 mph 21.9 mph N/A   Clear
1:15 PM 30.2 °F 19.3 °F 26.6 °F 86% 30.16 in 10.0 mi NNE 15.0 mph - N/A   Clear
1:35 PM 30.2 °F 18.9 °F 26.6 °F 86% 30.16 in 10.0 mi NNE 16.1 mph - N/A   Scattered Clouds
1:55 PM 30.2 °F 19.8 °F 26.6 °F 86% 30.15 in 10.0 mi NNE 13.8 mph - N/A   Scattered Clouds
2:15 PM 30.2 °F 18.1 °F 26.6 °F 86% 30.14 in 10.0 mi NNE 18.4 mph - N/A   Mostly Cloudy
2:35 PM 30.2 °F 18.9 °F 26.6 °F 86% 30.15 in 10.0 mi NNE 16.1 mph 19.6 mph N/A   Overcast
2:55 PM 30.2 °F 18.9 °F 26.6 °F 86% 30.14 in 10.0 mi NNE 16.1 mph - N/A   Overcast
3:15 PM 30.2 °F 17.4 °F 26.6 °F 86% 30.13 in 10.0 mi NNE 20.7 mph - N/A   Overcast
3:35 PM 30.2 °F 17.8 °F 26.6 °F 86% 30.13 in 10.0 mi NNE 19.6 mph 23.0 mph N/A   Overcast
3:55 PM 30.2 °F 19.3 °F 26.6 °F 86% 30.13 in 10.0 mi NNE 15.0 mph 21.9 mph N/A   Overcast
4:15 PM 30.2 °F 18.5 °F 26.6 °F 86% 30.13 in 10.0 mi NNE 17.3 mph 23.0 mph N/A   Overcast
4:35 PM 30.2 °F 19.8 °F 26.6 °F 86% 30.15 in 10.0 mi NNE 13.8 mph - N/A   Overcast
4:55 PM 30.2 °F 19.3 °F 26.6 °F 86% 30.16 in 10.0 mi NNE 15.0 mph - N/A   Overcast
5:15 PM 30.2 °F 19.8 °F 26.6 °F 86% 30.16 in 10.0 mi North 13.8 mph - N/A   Overcast
5:35 PM 30.2 °F 18.9 °F 26.6 °F 86% 30.16 in 10.0 mi North 16.1 mph - N/A   Overcast
5:55 PM 30.2 °F 20.2 °F 26.6 °F 86% 30.17 in 10.0 mi NNE 12.7 mph - N/A   Overcast
6:15 PM 30.2 °F 19.3 °F 26.6 °F 86% 30.15 in 10.0 mi NNE 15.0 mph - N/A   Mostly Cloudy
6:35 PM 30.2 °F 19.3 °F 26.6 °F 86% 30.15 in 10.0 mi North 15.0 mph - N/A   Mostly Cloudy
6:55 PM 28.4 °F 16.6 °F 26.6 °F 93% 30.14 in 10.0 mi North 16.1 mph 20.7 mph N/A   Mostly Cloudy
7:15 PM 28.4 °F 15.8 °F 26.6 °F 93% 30.13 in 10.0 mi North 18.4 mph 24.2 mph N/A   Overcast
7:35 PM 30.2 °F 18.1 °F 26.6 °F 86% 30.11 in 10.0 mi North 18.4 mph 23.0 mph N/A   Overcast
7:55 PM 28.4 °F 15.8 °F 26.6 °F 93% 30.09 in 10.0 mi North 18.4 mph 25.3 mph N/A   Overcast
8:15 PM 30.2 °F 18.5 °F 26.6 °F 86% 30.09 in 10.0 mi NNE 17.3 mph - N/A   Overcast
8:35 PM 30.2 °F 18.5 °F 26.6 °F 86% 30.09 in 10.0 mi NNE 17.3 mph 23.0 mph N/A   Overcast
8:55 PM 30.2 °F 19.8 °F 24.8 °F 80% 30.09 in 10.0 mi NNE 13.8 mph 20.7 mph N/A   Overcast
9:15 PM 30.2 °F 18.9 °F 24.8 °F 80% 30.09 in 10.0 mi NNE 16.1 mph - N/A   Overcast
10:15 PM 30.2 °F 19.8 °F 24.8 °F 80% 30.08 in 10.0 mi NNE 13.8 mph - N/A   Overcast
10:35 PM 30.2 °F 19.8 °F 24.8 °F 80% 30.07 in 10.0 mi NNE 13.8 mph 20.7 mph N/A   Overcast
10:55 PM 30.2 °F 19.3 °F 24.8 °F 80% 30.06 in 10.0 mi NNE 15.0 mph 21.9 mph N/A   Overcast
11:15 PM 30.2 °F 18.5 °F 24.8 °F 80% 30.04 in 10.0 mi NNE 17.3 mph 24.2 mph N/A   Overcast
11:35 PM 30.2 °F 18.9 °F 24.8 °F 80% 30.03 in 10.0 mi NNE 16.1 mph 21.9 mph N/A   Overcast
11:55 PM 30.2 °F 18.5 °F 24.8 °F 80% 30.02 in 10.0 mi NNE 17.3 mph 21.9 mph N/A   Overcast